This demonstration page uses our WeatherBlox Daily Observations layout. Learn more.

38.88101, -77.10428

Hourly Observations for April 7, 2020

Temp ( °F °C ) Dew Point ( °F °C ) Humidity (%) Winds ( mph kmh ) Pressure ( in mb ) Visibility ( mi km ) Precip ( " mm )
12:52 am 00:52 Mostly Cloudy 55 12.8 37 2.8 51 51 SSW 5 7 30.02 1017 10 16.0934 0 0
1:52 am 01:52 Mostly Cloudy 54 12.2 46 7.8 75 75 S 6 9 30.01 1016 10 16.0934 0 0
2:52 am 02:52 Mostly Cloudy 55 12.8 44 6.7 67 67 S 8 13 29.99 1016 10 16.0934 0 0
3:52 am 03:52 Cloudy 56 13.3 47 8.3 72 72 S 6 9 29.97 1015 10 16.0934 0.001 0.001
4:52 am 04:52 Cloudy 56 13.3 47 8.3 72 72 SSW 5 7 29.98 1015 10 16.0934 0.001 0.001
5:52 am 05:52 Cloudy 56 13.3 49 9.4 77 77 S 3 6 29.97 1015 10 16.0934 0 0
6:52 am 06:52 Cloudy 56 13.3 49 9.4 77 77 S 7 11 29.96 1015 10 16.0934 0 0
7:52 am 07:52 Cloudy 56 13.3 51 10.6 84 84 S 8 13 29.96 1015 10 16.0934 0 0
8:36 am 08:36 Cloudy with Light Rain 57 13.9 52 11.1 83 83 Calm 29.97 1015 10 16.0934 0.001 0.001
8:52 am 08:52 Cloudy 58 14.4 52 11.1 81 81 S 3 6 29.96 1015 10 16.0934 0.001 0.001
9:31 am 09:31 Mostly Cloudy 59 15 53 11.7 81 81 SSE 6 9 29.97 1015 10 16.0934 0 0
9:52 am 09:52 Partly Cloudy 60 15.6 54 12.2 80 80 SSE 6 9 29.96 1015 10 16.0934 0 0
10:52 am 10:52 Mostly Cloudy 62 16.7 55 12.8 78 78 S 7 11 29.94 1014 10 16.0934 0 0
11:52 am 11:52 Mostly Cloudy 67 19.4 55 12.8 66 66 SE 5 7 29.91 1013 10 16.0934 0 0
12:52 pm 12:52 Cloudy 68 20 55 12.8 63 63 S 8 13 29.89 1012 10 16.0934 0 0
1:52 pm 13:52 Cloudy 71 21.7 53 11.7 53 53 SSE 5 7 29.86 1011 10 16.0934 0 0
2:52 pm 14:52 Cloudy 70 21.1 54 12.2 57 57 ENE 6 9 29.83 1010 10 16.0934 0 0
3:13 pm 15:13 Cloudy with Light Rain 69 20.6 54 12.2 59 59 NNE 6 9 29.84 1010 8 12.87472 0.001 0.001
3:22 pm 15:22 Cloudy with Rain 67 19.4 54 12.2 63 63 NW 8 13 29.86 1011 3 4.82802 0.02 0.508
3:24 pm 15:24 Cloudy with Rain 66 18.9 54 12.2 65 65 WNW 8 13 29.86 1011 2 3.21868 0.03 0.762
3:27 pm 15:27 Cloudy with Heavy Rain 65 18.3 54 12.2 68 68 NW 12 19 29.87 1011 1.75 2.816345 0.06 1.524
3:52 pm 15:52 Cloudy with Rain 60 15.6 57 13.9 90 90 NNE 12 19 29.83 1010 1.25 2.011675 0.32 8.128
3:57 pm 15:57 Cloudy with Rain 60 15.6 57 13.9 90 90 NE 9 15 29.83 1010 2.5 4.02335 0.02 0.508
4:01 pm 16:01 Cloudy with Rain 60 15.6 57 13.9 90 90 N 7 11 29.84 1010 3 4.82802 0.04 1.016
4:11 pm 16:11 Mostly Cloudy with Light Rain 62 16.7 58 14.4 86 86 NNE 6 9 29.82 1010 10 16.0934 0.05 1.27
4:52 pm 16:52 Mostly Cloudy 63 17.2 57 13.9 81 81 Calm 29.81 1009 10 16.0934 0.05 1.27
5:52 pm 17:52 Mostly Cloudy 64 17.8 57 13.9 78 78 SSE 5 7 29.78 1009 10 16.0934 0 0
6:52 pm 18:52 Mostly Cloudy 63 17.2 57 13.9 81 81 SSW 3 6 29.78 1009 10 16.0934 0 0
7:52 pm 19:52 Mostly Cloudy 62 16.7 58 14.4 86 86 S 7 11 29.78 1008 10 16.0934 0 0
8:52 pm 20:52 Mostly Cloudy 61 16.1 58 14.4 90 90 S 7 11 29.76 1008 10 16.0934 0 0
9:52 pm 21:52 Mostly Cloudy 61 16.1 58 14.4 90 90 S 8 13 29.75 1008 10 16.0934 0 0
10:52 pm 22:52 Mostly Cloudy 60 15.6 58 14.4 93 93 SSW 7 11 29.72 1006 10 16.0934 0 0
11:52 pm 23:52 Mostly Clear 59 15 56 13.3 90 90 SSW 8 13 29.69 1005 10 16.0934 0.001 0.001

Powered by AerisWeather